Madison, MN

12:19 AM CDT on July 22, 2017 (GMT -0500)
Madison-Lac Qui Parle County

Weather History for KDXX - April, 2013

Change the Weather History Date:

Friday, April 12, 2013

  Actual Average (KAQP) Record (KAQP)
Temperature  
Mean Temperature 30 °F -  
Max Temperature 32 °F 51 °F 78 °F (2015)
Min Temperature 28 °F 30 °F 15 °F (2016)
Degree Days  
Heating Degree Days 35    
Moisture  
Dew Point 25 °F    
Average Humidity 85    
Maximum Humidity 93    
Minimum Humidity 75    
Precipitation  
Precipitation 0.00 in - - ()
Sea Level Pressure  
Sea Level Pressure 29.82 in    
Wind  
Wind Speed 11 mph (NNW)    
Max Wind Speed 18 mph    
Max Gust Speed 18 mph    
Visibility 9 miles    
Events Snow    
Averages and records for this station are not official NWS values.
T = Trace of Precipitation, MM = Missing Value Source: NWS Daily Summary

Daily Weather History Graph

Daily Weather History Graph

Search for Another Location

Airport or City:

Trip Planner

Search our weather history database for the weather conditions in past years. The results will help you decide how hot, cold, wet, or windy it might be!

Date:

Astronomy

Apr. 12, 2013 Rise Set
Actual Time 6:44 AM CDT 8:06 PM CDT
Civil Twilight 6:14 AM CDT 8:37 PM CDT
Nautical Twilight 5:37 AM CDT 9:14 PM CDT
Astronomical Twilight 4:58 AM CDT 9:53 PM CDT
Moon 7:49 AM CDT (4/12) 10:45 PM CDT (4/12)
Length of Visible Light 14h 22m
Length of Day
13h 21m
Waxing Crescent, 5% of the Moon is Illuminated
Apr 12
Waxing Crescent
Apr 18
First Quarter
Apr 25
Full
May 2
Last Quarter
May 9
New

Hourly Weather History & Observations

Time (CDT) Temp. Windchill Dew Point Humidity Pressure Visibility Wind Dir Wind Speed Gust Speed Precip Events Conditions
12:13 AM 28.4 °F 18.5 °F 26.6 °F 93% 29.76 in 10.0 mi North 11.5 mph - N/A   Overcast
12:34 AM 28.4 °F 19.1 °F 26.6 °F 93% 29.76 in 10.0 mi North 10.4 mph - N/A   Overcast
12:53 AM 28.4 °F 19.1 °F 24.8 °F 86% 29.76 in 10.0 mi North 10.4 mph - N/A   Overcast
1:14 AM 28.4 °F 19.7 °F 26.6 °F 93% 29.77 in 5.0 mi North 9.2 mph - N/A   Overcast
1:33 AM 28.4 °F 20.4 °F 26.6 °F 93% 29.77 in 4.0 mi North 8.1 mph - N/A   Overcast
1:54 AM 28.4 °F 19.7 °F 26.6 °F 93% 29.77 in 2.5 mi North 9.2 mph - N/A   Mostly Cloudy
2:13 AM 28.4 °F 19.7 °F 26.6 °F 93% 29.77 in 2.5 mi North 9.2 mph - N/A   Overcast
2:33 AM 28.4 °F 17.5 °F 26.6 °F 93% 29.76 in 2.0 mi North 13.8 mph - N/A   Overcast
2:54 AM 28.4 °F 19.1 °F 26.6 °F 93% 29.75 in 4.0 mi North 10.4 mph - N/A   Overcast
3:13 AM 28.4 °F 19.1 °F 26.6 °F 93% 29.75 in 4.0 mi North 10.4 mph - N/A   Overcast
3:33 AM 28.4 °F 19.7 °F 26.6 °F 93% 29.75 in 5.0 mi North 9.2 mph - N/A   Overcast
3:54 AM 28.4 °F 19.1 °F 26.6 °F 93% 29.75 in 7.0 mi North 10.4 mph - N/A   Mostly Cloudy
4:13 AM 28.4 °F 18.5 °F 26.6 °F 93% 29.76 in 5.0 mi North 11.5 mph - N/A   Mostly Cloudy
4:33 AM 28.4 °F 19.1 °F 26.6 °F 93% 29.76 in 7.0 mi North 10.4 mph - N/A   Overcast
4:54 AM 28.4 °F 19.1 °F 26.6 °F 93% 29.76 in 10.0 mi North 10.4 mph - N/A   Overcast
5:13 AM 28.4 °F 19.7 °F 24.8 °F 86% 29.76 in 10.0 mi North 9.2 mph - N/A   Overcast
5:33 AM 28.4 °F 20.4 °F 24.8 °F 86% 29.76 in 10.0 mi NNW 8.1 mph - N/A   Overcast
5:54 AM 28.4 °F 19.1 °F 24.8 °F 86% 29.76 in 10.0 mi North 10.4 mph - N/A   Overcast
6:13 AM 28.4 °F 19.7 °F 24.8 °F 86% 29.75 in 10.0 mi North 9.2 mph - N/A   Overcast
6:33 AM 28.4 °F 19.1 °F 24.8 °F 86% 29.76 in 10.0 mi NNW 10.4 mph - N/A   Overcast
6:54 AM 28.4 °F 19.1 °F 24.8 °F 86% 29.76 in 10.0 mi North 10.4 mph - N/A   Overcast
7:13 AM 28.4 °F 19.7 °F 24.8 °F 86% 29.76 in 10.0 mi NNW 9.2 mph - N/A   Overcast
7:33 AM 28.4 °F 19.7 °F 24.8 °F 86% 29.77 in 10.0 mi NNW 9.2 mph - N/A   Overcast
7:54 AM 28.4 °F 19.7 °F 24.8 °F 86% 29.77 in 10.0 mi NNW 9.2 mph - N/A   Overcast
8:13 AM 28.4 °F 19.1 °F 24.8 °F 86% 29.77 in 10.0 mi NNW 10.4 mph - N/A   Overcast
8:34 AM 28.4 °F 19.1 °F 24.8 °F 86% 29.78 in 10.0 mi NNW 10.4 mph - N/A   Mostly Cloudy
8:53 AM 28.4 °F 17.5 °F 26.6 °F 93% 29.78 in 10.0 mi NNW 13.8 mph - N/A   Scattered Clouds
9:14 AM 28.4 °F 18.0 °F 26.6 °F 93% 29.78 in 10.0 mi NNW 12.7 mph - N/A   Clear
9:53 AM 28.4 °F 18.0 °F 26.6 °F 93% 29.78 in 10.0 mi NNW 12.7 mph - N/A   Scattered Clouds
10:14 AM 28.4 °F 18.0 °F 26.6 °F 93% 29.79 in 10.0 mi NNW 12.7 mph - N/A   Scattered Clouds
10:34 AM 28.4 °F 17.5 °F 24.8 °F 86% 29.80 in 10.0 mi NNW 13.8 mph - N/A   Clear
10:53 AM 28.4 °F 17.5 °F 24.8 °F 86% 29.80 in 10.0 mi NNW 13.8 mph - N/A   Scattered Clouds
11:14 AM 30.2 °F 19.3 °F 24.8 °F 80% 29.80 in 10.0 mi NNW 15.0 mph - N/A   Scattered Clouds
11:34 AM 30.2 °F 20.2 °F 24.8 °F 80% 29.81 in 10.0 mi NW 12.7 mph - N/A   Scattered Clouds
11:53 AM 30.2 °F 20.8 °F 26.6 °F 86% 29.81 in 10.0 mi NW 11.5 mph - N/A   Scattered Clouds
12:14 PM 30.2 °F 20.8 °F 24.8 °F 80% 29.81 in 10.0 mi NW 11.5 mph - N/A   Scattered Clouds
12:34 PM 30.2 °F 20.2 °F 24.8 °F 80% 29.81 in 10.0 mi NW 12.7 mph - N/A   Scattered Clouds
12:53 PM 30.2 °F 20.2 °F 24.8 °F 80% 29.82 in 10.0 mi NW 12.7 mph 18.4 mph N/A   Scattered Clouds
1:14 PM 30.2 °F 19.3 °F 24.8 °F 80% 29.81 in 10.0 mi NW 15.0 mph - N/A   Scattered Clouds
1:33 PM 30.2 °F 19.8 °F 24.8 °F 80% 29.81 in 10.0 mi NW 13.8 mph - N/A   Scattered Clouds
1:53 PM 32.0 °F 21.2 °F 24.8 °F 75% 29.82 in 10.0 mi NW 16.1 mph - N/A   Scattered Clouds
2:13 PM 32.0 °F 22.1 °F 26.6 °F 80% 29.81 in 10.0 mi NNW 13.8 mph - N/A   Scattered Clouds
2:33 PM 32.0 °F 21.2 °F 24.8 °F 75% 29.82 in 10.0 mi NW 16.1 mph - N/A   Mostly Cloudy
2:54 PM 32.0 °F 22.5 °F 24.8 °F 75% 29.83 in 10.0 mi NW 12.7 mph - N/A   Mostly Cloudy
3:13 PM 32.0 °F 22.1 °F 24.8 °F 75% 29.83 in 10.0 mi NW 13.8 mph - N/A   Mostly Cloudy
3:33 PM 32.0 °F 21.6 °F 24.8 °F 75% 29.83 in 10.0 mi NW 15.0 mph - N/A   Mostly Cloudy
3:54 PM 32.0 °F 22.5 °F 24.8 °F 75% 29.83 in 10.0 mi NW 12.7 mph - N/A   Mostly Cloudy
4:13 PM 32.0 °F 20.5 °F 24.8 °F 75% 29.84 in 10.0 mi NNW 18.4 mph - N/A   Overcast
4:33 PM 32.0 °F 22.1 °F 24.8 °F 75% 29.84 in 10.0 mi NW 13.8 mph - N/A   Mostly Cloudy
4:54 PM 32.0 °F 21.2 °F 24.8 °F 75% 29.84 in 10.0 mi NNW 16.1 mph - N/A   Mostly Cloudy
5:13 PM 32.0 °F 23.0 °F 24.8 °F 75% 29.85 in 10.0 mi NW 11.5 mph - N/A   Mostly Cloudy
5:33 PM 32.0 °F 23.0 °F 24.8 °F 75% 29.86 in 10.0 mi NW 11.5 mph - N/A   Mostly Cloudy
5:54 PM 32.0 °F 21.6 °F 24.8 °F 75% 29.86 in 10.0 mi NNW 15.0 mph - N/A   Mostly Cloudy
6:13 PM 32.0 °F 23.0 °F 24.8 °F 75% 29.87 in 10.0 mi NW 11.5 mph - N/A   Overcast
6:33 PM 32.0 °F 23.6 °F 26.6 °F 80% 29.88 in 10.0 mi NW 10.4 mph - N/A   Overcast
6:54 PM 30.2 °F 20.8 °F 24.8 °F 80% 29.88 in 10.0 mi NW 11.5 mph - N/A   Overcast
7:13 PM 30.2 °F 21.9 °F 24.8 °F 80% 29.88 in 10.0 mi NW 9.2 mph - N/A   Overcast
7:34 PM 30.2 °F 20.8 °F 24.8 °F 80% 29.88 in 10.0 mi NW 11.5 mph - N/A   Overcast
7:54 PM 30.2 °F 20.2 °F 24.8 °F 80% 29.88 in 10.0 mi NW 12.7 mph - N/A   Overcast
8:13 PM 30.2 °F 20.2 °F 24.8 °F 80% 29.88 in 10.0 mi NW 12.7 mph - N/A   Overcast
8:34 PM 30.2 °F 20.2 °F 24.8 °F 80% 29.89 in 10.0 mi NW 12.7 mph - N/A Snow Light Snow
8:54 PM 30.2 °F 20.2 °F 24.8 °F 80% 29.89 in 10.0 mi NW 12.7 mph - N/A   Overcast
9:13 PM 30.2 °F 18.9 °F 24.8 °F 80% 29.89 in 10.0 mi NW 16.1 mph - N/A   Overcast
9:34 PM 28.4 °F 18.5 °F 24.8 °F 86% 29.90 in 10.0 mi NW 11.5 mph - N/A   Mostly Cloudy
9:54 PM 28.4 °F 18.5 °F 24.8 °F 86% 29.90 in 10.0 mi NW 11.5 mph - N/A   Clear
10:13 PM 28.4 °F 18.5 °F 24.8 °F 86% 29.91 in 10.0 mi NW 11.5 mph - N/A   Clear
10:34 PM 28.4 °F 19.1 °F 24.8 °F 86% 29.90 in 10.0 mi NW 10.4 mph - N/A   Clear
10:54 PM 28.4 °F 19.1 °F 24.8 °F 86% 29.90 in 10.0 mi NW 10.4 mph - N/A   Clear
11:13 PM 28.4 °F 19.1 °F 26.6 °F 93% 29.90 in 10.0 mi WNW 10.4 mph - N/A   Clear
11:34 PM 28.4 °F 19.7 °F 26.6 °F 93% 29.90 in 7.0 mi WNW 9.2 mph - N/A Snow Light Snow
11:54 PM 28.4 °F 19.7 °F 26.6 °F 93% 29.90 in 4.0 mi WNW 9.2 mph - N/A Snow Light Snow